• In Hungary
  • List of Countries
  • For 7 days
  • Water Temperature
  • Satellite Maps
  • Weather Map
  • News
  • Weather Widgets
  • user-avatar
    Login

    Hourly Weather Nipity

    Today, 19 June, Tuesday

    Time Temperature Precipitation Wind Pressure Humidity
    00:00 +17°C° 0 mm 2 mps 745 mmHg 89%
    01:00 +16°C° 0 mm 2 mps 745 mmHg 91%
    02:00 +16°C° 0 mm 2 mps 744 mmHg 94%
    03:00 +16°C° 0 mm 2 mps 744 mmHg 93%
    04:00 +17°C° 0 mm 2 mps 744 mmHg 91%
    05:00 +18°C° 0 mm 2 mps 744 mmHg 89%
    06:00 +19°C° 0.1 mm 2 mps 744 mmHg 84%
    07:00 +20°C° 0.1 mm 2 mps 744 mmHg 79%
    08:00 +23°C° 0.1 mm 2 mps 744 mmHg 74%
    09:00 +24°C° 0.6 mm 2 mps 744 mmHg 71%
    10:00 +24°C° 0.6 mm 3 mps 743 mmHg 69%
    11:00 +25°C° 0.6 mm 3 mps 743 mmHg 66%
    12:00 +25°C° 0.4 mm 4 mps 743 mmHg 64%
    13:00 +25°C° 0.4 mm 4 mps 742 mmHg 63%
    14:00 +25°C° 0.4 mm 4 mps 742 mmHg 62%
    15:00 +25°C° 0.1 mm 4 mps 742 mmHg 60%
    16:00 +23°C° 0.1 mm 4 mps 741 mmHg 59%
    17:00 +23°C° 0.1 mm 4 mps 741 mmHg 58%
    18:00 +22°C° 0 mm 3 mps 741 mmHg 61%
    19:00 +21°C° 0 mm 3 mps 740 mmHg 64%
    20:00 +19°C° 0 mm 3 mps 740 mmHg 67%
    21:00 +19°C° 0 mm 4 mps 740 mmHg 69%
    22:00 +18°C° 0 mm 4 mps 739 mmHg 71%
    23:00 +16°C° 0 mm 5 mps 739 mmHg 73%

    Tomorrow, 20 June, Wednesday

    Time Temperature Precipitation Wind Pressure Humidity
    00:00 +15°C° 0.3 mm 5 mps 739 mmHg 79%
    01:00 +13°C° 0.3 mm 5 mps 740 mmHg 86%
    02:00 +12°C° 0.3 mm 5 mps 740 mmHg 92%
    03:00 +12°C° 0 mm 5 mps 740 mmHg 91%
    04:00 +10°C° 0 mm 5 mps 741 mmHg 89%
    05:00 +10°C° 0 mm 5 mps 741 mmHg 87%
    06:00 +13°C° 0 mm 5 mps 741 mmHg 75%
    07:00 +15°C° 0 mm 6 mps 741 mmHg 63%
    08:00 +16°C° 0 mm 6 mps 742 mmHg 51%
    09:00 +19°C° 0 mm 6 mps 742 mmHg 46%
    10:00 +20°C° 0 mm 7 mps 742 mmHg 41%
    11:00 +21°C° 0 mm 7 mps 742 mmHg 37%
    12:00 +21°C° 0 mm 7 mps 742 mmHg 37%
    13:00 +21°C° 0 mm 6 mps 742 mmHg 37%
    14:00 +22°C° 0 mm 6 mps 742 mmHg 37%
    15:00 +21°C° 0 mm 6 mps 742 mmHg 41%
    16:00 +20°C° 0 mm 5 mps 742 mmHg 45%
    17:00 +19°C° 0 mm 4 mps 742 mmHg 49%
    18:00 +18°C° 0 mm 4 mps 742 mmHg 53%
    19:00 +17°C° 0 mm 3 mps 742 mmHg 57%
    20:00 +16°C° 0 mm 3 mps 742 mmHg 61%
    21:00 +14°C° 0 mm 3 mps 743 mmHg 66%
    22:00 +13°C° 0 mm 3 mps 743 mmHg 72%
    23:00 +12°C° 0 mm 2 mps 743 mmHg 78%

    Day after tomorrow, 21 June, Thursday

    Time Temperature Precipitation Wind Pressure Humidity
    00:00 +12°C° 0 mm 2 mps 743 mmHg 79%
    01:00 +10°C° 0 mm 2 mps 743 mmHg 81%
    02:00 +10°C° 0 mm 2 mps 743 mmHg 82%
    03:00 +10°C° 0 mm 2 mps 743 mmHg 77%
    04:00 +11°C° 0 mm 3 mps 743 mmHg 71%
    05:00 +12°C° 0 mm 3 mps 744 mmHg 65%
    06:00 +13°C° 0 mm 3 mps 743 mmHg 61%
    07:00 +15°C° 0 mm 4 mps 743 mmHg 56%
    08:00 +17°C° 0 mm 4 mps 743 mmHg 52%
    09:00 +18°C° 0 mm 4 mps 743 mmHg 51%
    10:00 +18°C° 0 mm 4 mps 743 mmHg 51%
    11:00 +19°C° 0 mm 4 mps 743 mmHg 50%
    12:00 +19°C° 0 mm 4 mps 743 mmHg 53%
    13:00 +19°C° 0 mm 4 mps 743 mmHg 55%
    14:00 +20°C° 0 mm 4 mps 743 mmHg 57%
    15:00 +19°C° 0 mm 3 mps 743 mmHg 61%
    16:00 +19°C° 0 mm 3 mps 743 mmHg 66%
    17:00 +18°C° 0 mm 3 mps 743 mmHg 71%
    18:00 +18°C° 0 mm 2 mps 743 mmHg 76%
    19:00 +17°C° 0 mm 2 mps 743 mmHg 81%
    20:00 +16°C° 0 mm 2 mps 743 mmHg 87%
    21:00 +16°C° 0 mm 2 mps 743 mmHg 90%
    22:00 +15°C° 0 mm 2 mps 743 mmHg 93%
    23:00 +15°C° 0 mm 2 mps 743 mmHg 95%

    22 June, Friday

    Time Temperature Precipitation Wind Pressure Humidity
    00:00 +15°C° 0 mm 2 mps 742 mmHg 95%
    01:00 +14°C° 0 mm 3 mps 742 mmHg 95%
    02:00 +14°C° 0 mm 3 mps 742 mmHg 95%
    03:00 +16°C° 0 mm 3 mps 742 mmHg 93%
    04:00 +17°C° 0 mm 4 mps 741 mmHg 91%
    05:00 +18°C° 0 mm 4 mps 741 mmHg 89%
    06:00 +19°C° 0 mm 5 mps 741 mmHg 80%
    07:00 +21°C° 0 mm 5 mps 741 mmHg 71%
    08:00 +23°C° 0 mm 6 mps 740 mmHg 62%
    09:00 +24°C° 0 mm 6 mps 740 mmHg 59%
    10:00 +26°C° 0 mm 7 mps 740 mmHg 55%
    11:00 +27°C° 0 mm 7 mps 739 mmHg 52%
    12:00 +27°C° 0.2 mm 7 mps 739 mmHg 56%
    13:00 +27°C° 0.2 mm 6 mps 739 mmHg 60%
    14:00 +26°C° 0.2 mm 6 mps 738 mmHg 64%
    15:00 +26°C° 0.4 mm 5 mps 738 mmHg 69%
    16:00 +26°C° 0.4 mm 5 mps 738 mmHg 73%
    17:00 +25°C° 0.4 mm 4 mps 737 mmHg 78%
    18:00 +23°C° 1.7 mm 4 mps 738 mmHg 82%
    19:00 +21°C° 1.7 mm 5 mps 738 mmHg 86%
    20:00 +20°C° 1.7 mm 5 mps 738 mmHg 90%
    21:00 +19°C° 0.2 mm 4 mps 738 mmHg 93%
    22:00 +18°C° 0.2 mm 3 mps 739 mmHg 95%
    23:00 +16°C° 0.2 mm 2 mps 739 mmHg 97%

    23 June, Saturday

    Time Temperature Precipitation Wind Pressure Humidity
    00:00 +16°C° 0 mm 2 mps 740 mmHg 97%
    01:00 +16°C° 0 mm 1 mps 740 mmHg 97%
    02:00 +15°C° 0 mm 1 mps 740 mmHg 97%
    03:00 +15°C° 0.1 mm 1 mps 740 mmHg 97%
    04:00 +15°C° 0.1 mm 1 mps 740 mmHg 96%
    05:00 +14°C° 0.1 mm 0 mps 740 mmHg 95%
    06:00 +14°C° 0.2 mm 0 mps 740 mmHg 95%
    07:00 +15°C° 0.2 mm 1 mps 740 mmHg 96%
    08:00 +15°C° 0.2 mm 1 mps 740 mmHg 96%
    09:00 +15°C° 0.4 mm 1 mps 741 mmHg 96%
    10:00 +15°C° 0.4 mm 1 mps 741 mmHg 96%
    11:00 +15°C° 0.4 mm 1 mps 741 mmHg 97%
    12:00 +15°C° 0.2 mm 1 mps 741 mmHg 96%
    13:00 +15°C° 0.2 mm 1 mps 741 mmHg 96%
    14:00 +15°C° 0.2 mm 1 mps 741 mmHg 96%
    15:00 +14°C° 0.1 mm 1 mps 741 mmHg 95%
    16:00 +14°C° 0.1 mm 1 mps 742 mmHg 95%
    17:00 +14°C° 0.1 mm 1 mps 742 mmHg 94%
    18:00 +14°C° 0 mm 1 mps 742 mmHg 94%
    19:00 +13°C° 0 mm 1 mps 741 mmHg 94%
    20:00 +13°C° 0 mm 1 mps 741 mmHg 94%
    21:00 +13°C° 0 mm 1 mps 741 mmHg 94%
    22:00 +13°C° 0 mm 1 mps 741 mmHg 95%
    23:00 +12°C° 0 mm 1 mps 742 mmHg 95%

    24 June, Sunday

    Time Temperature Precipitation Wind Pressure Humidity
    00:00 +12°C° 0.3 mm 1 mps 742 mmHg 96%
    01:00 +12°C° 0.3 mm 1 mps 742 mmHg 96%
    02:00 +12°C° 0.3 mm 1 mps 742 mmHg 97%
    03:00 +12°C° 0.5 mm 1 mps 742 mmHg 97%
    04:00 +12°C° 0.5 mm 1 mps 742 mmHg 97%
    05:00 +13°C° 0.5 mm 1 mps 742 mmHg 97%
    06:00 +14°C° 0.1 mm 2 mps 742 mmHg 93%
    07:00 +15°C° 0.1 mm 2 mps 742 mmHg 88%
    08:00 +16°C° 0.1 mm 2 mps 742 mmHg 83%
    09:00 +18°C° 0.1 mm 2 mps 742 mmHg 74%
    10:00 +19°C° 0.1 mm 3 mps 743 mmHg 64%
    11:00 +21°C° 0.1 mm 3 mps 743 mmHg 54%
    12:00 +21°C° 0.2 mm 3 mps 743 mmHg 52%
    13:00 +21°C° 0.2 mm 3 mps 743 mmHg 50%
    14:00 +22°C° 0.2 mm 4 mps 743 mmHg 48%
    15:00 +21°C° 0.1 mm 4 mps 743 mmHg 53%
    16:00 +20°C° 0.1 mm 3 mps 743 mmHg 58%
    17:00 +19°C° 0.1 mm 3 mps 744 mmHg 62%
    18:00 +18°C° 0 mm 3 mps 744 mmHg 70%
    19:00 +16°C° 0 mm 3 mps 744 mmHg 78%
    20:00 +15°C° 0 mm 2 mps 744 mmHg 85%
    21:00 +13°C° 0 mm 2 mps 745 mmHg 88%
    22:00 +12°C° 0 mm 2 mps 745 mmHg 92%
    23:00 +10°C° 0 mm 2 mps 746 mmHg 95%
    Show more